Flag for U.S.A. Weather past 2 weeks in Norfolk, Virginia, U.S.A.

Now
39 °F

Broken clouds.


Feels Like: 33 °F
Forecast: 28 / 46 °F
Wind: 8 mph from Southeast

Location: Norfolk Naval Air Station

Current Time: Jan 29, 2015 at 11:30:08 AM

Latest Report: Jan 29, 2015 at 10:59 AM


Visibility: 10 mi

Pressure: 30.34 "Hg

Humidity: 41%

Dew point: 17 °F

Location of NorfolkLocation

Historic Weather in Norfolk — Graph

°F

Norfolk temperature yesterday

Maximum temperature yesterday: 43 °F (at 1:59 PM)
Minimum temperature yesterday: 30 °F (at 5:59 AM)
Average temperature yesterday: 36 °F

Past Weeks' High & Low Weather Summary

 TemperatureHumidityPressure
High62 °F (Jan 18, 8:59 AM)100% (Jan 22, 4:59 AM)30.45 "Hg (Jan 22, 4:59 AM)
Low30 °F (Jan 28, 5:59 AM)24% (Jan 28, 3:59 PM)29.44 "Hg (Jan 24, 12:59 PM)
Average43 °F66%30.03 "Hg
* Reported Jan 14 9:59 AM — Jan 29 9:59 AM, Norfolk, Weather by CustomWeather, © 2014

Note: Actual official high and low records may vary slightly from our data, if they occured in-between our weather recording intervals... More about our weather records

Advertising

Norfolk weather history for previous 24 hours

 ConditionsComfort  
Time TempWeatherWind HumidityBarometerVisibility
9:59 AM
Jan 29
38 °FPartly sunny.5 mph46%30.36 "Hg10 mi
8:59 AM36 °FPartly sunny.6 mph57%30.35 "Hg10 mi
7:59 AM35 °FScattered clouds.7 mph56%30.37 "Hg10 mi
6:59 AM31 °FPassing clouds.7 mph61%30.35 "Hg10 mi
5:59 AM32 °FClear.7 mph56%30.33 "Hg10 mi
4:59 AM32 °FClear.9 mph52%30.33 "Hg10 mi
3:59 AM32 °FClear.12 mph47%30.34 "Hg10 mi
2:59 AM32 °FClear.9 mph45%30.34 "Hg10 mi
1:59 AM32 °FClear.9 mph43%30.34 "Hg10 mi
12:59 AM33 °FClear.10 mph41%30.34 "Hg10 mi
11:59 PM
Jan 28
34 °FClear.10 mph40%30.35 "Hg10 mi
10:59 PM35 °FClear.12 mph36%30.34 "Hg10 mi
9:59 PM36 °FClear.12 mph34%30.33 "Hg10 mi
8:59 PM37 °FClear.15 mph33%30.31 "Hg10 mi
7:59 PM38 °FClear.13 mph33%30.29 "Hg10 mi
6:59 PM39 °FPassing clouds.10 mph33%30.27 "Hg10 mi
5:59 PM40 °FPassing clouds.13 mph28%30.25 "Hg10 mi
4:59 PM42 °FSunny.14 mph25%30.23 "Hg10 mi
3:59 PM43 °FSunny.15 mph24%30.21 "Hg10 mi
2:59 PM43 °FSunny.13 mph29%30.20 "Hg10 mi
1:59 PM43 °FSunny.12 mph25%30.20 "Hg10 mi
12:59 PM42 °FSunny.12 mph28%30.21 "Hg10 mi
11:59 AM38 °FSunny.12 mph33%30.22 "Hg10 mi
Weather by CustomWeather, © 2014

See weather overviewHow to use our weather pages